Flag for Canada Weather past 2 weeks in St. John's, Newfoundland and Labrador, Canada

Now
54 °F

Partly sunny.


Feels Like: 50 °F
Forecast: N/A
Wind: 13 mph from Southeast

Location: St. John's

Current Time: Sep 2, 2014 at 7:36:07 PM

Latest Report: Sep 2, 2014 at 6:30 PM


Visibility: 15 mi

Pressure: 30.13 "Hg

Humidity: 88%

Dew point: 50 °F

Location of St. John'sLocation

Historic Weather in St. John's — Graph

°F

St. John's temperature yesterday

Maximum temperature yesterday: 63 °F (at 9:30 AM)
Minimum temperature yesterday: 52 °F (at 9:30 PM)
Average temperature yesterday: 59 °F

Past Weeks' High & Low Weather Summary

 TemperatureHumidityPressure
High75 °F (Aug 27, 1:30 PM)100% (Aug 18, 7:30 PM)30.22 "Hg (Aug 18, 7:30 PM)
Low43 °F (Aug 30, 3:30 AM)52% (Aug 30, 1:30 PM)29.59 "Hg (Aug 29, 7:30 AM)
Average58 °F91%29.94 "Hg
* Reported Aug 18 6:30 PM — Sep 2 6:30 PM, St. John's, Weather by CustomWeather, © 2014

Note: Actual official high and low records may vary slightly from our data, if they occured in-between our weather recording intervals... More about our weather records

Advertising

St. John's weather history for previous 24 hours

 ConditionsComfort  
Time TempWeatherWind HumidityBarometerVisibility
6:30 PM
Sep 2
54 °FPartly sunny.13 mph88%30.13 "Hg15 mi
5:30 PM55 °FPartly sunny.12 mph77%30.12 "Hg15 mi
4:30 PM57 °FPartly sunny.10 mph72%30.12 "Hg15 mi
3:30 PM59 °FPartly sunny.10 mph77%30.11 "Hg15 mi
2:30 PM61 °FPartly sunny.10 mph68%30.12 "Hg15 mi
1:30 PM61 °FPartly sunny.9 mph72%30.13 "Hg15 mi
12:30 PM61 °FScattered clouds.9 mph68%30.14 "Hg15 mi
11:30 AM59 °FPassing clouds.9 mph77%30.14 "Hg15 mi
10:30 AM59 °FPassing clouds.10 mph72%30.14 "Hg15 mi
9:30 AM55 °FPassing clouds.7 mph88%30.14 "Hg15 mi
8:30 AM52 °FPassing clouds.8 mph94%30.13 "Hg15 mi
7:30 AM50 °FPartly sunny.7 mph100%30.12 "Hg15 mi
6:30 AM48 °FPassing clouds.6 mph100%30.12 "Hg15 mi
5:30 AM48 °FPassing clouds.7 mph100%30.09 "Hg15 mi
4:30 AM48 °FPassing clouds.6 mph100%30.07 "Hg10 mi
3:30 AM46 °FPassing clouds.6 mph100%30.07 "Hg15 mi
2:30 AM48 °FPassing clouds.5 mph100%30.07 "Hg15 mi
1:30 AM50 °FLow clouds.12 mph94%30.07 "Hg15 mi
12:30 AM50 °FLow clouds.6 mph100%30.06 "Hg12 mi
11:30 PM
Sep 1
52 °FFog.8 mph100%30.06 "Hg6 mi
10:30 PM52 °FFog.9 mph100%30.04 "Hg0 mi
9:30 PM52 °FFog.9 mph100%30.03 "Hg1 mi
8:30 PM54 °FFog.13 mph94%30.02 "Hg4 mi
7:30 PM54 °FCool.12 mph100%30.01 "Hg1 mi
Weather by CustomWeather, © 2014

See weather overviewHow to use our weather pages